sat.trackr.live / text

‹ back to catalog

SARSAT 13 (METOP-B)

NORAD 38771 · 2012-049A

PAYLOAD ACTIVE UNKNOWN

§ Identity

Operator
Country
EUME
Launch date
2012-09-17
Launch site
TYMSC
Launch vehicle
Mass (kg)
RCS (m²)
13.65

Purposes: earth_obs

External: N2YO · Heavens-Above · Gunter

§ Orbital elements

Epoch: 2026-09-14T22:30:01.909440Z

Period
101.30 min
Inclination
98.6415°
Eccentricity
0.0003448
Mean motion
14.21459141 rev/d
Perigee alt
817.9 km
Apogee alt
822.9 km
Semi-major
7,198.6 km
B*
5.1252e-5
RAAN
307.6080°
Arg perigee
90.2135°
Mean anomaly
269.9437°
Rev number
72,601

§ Raw data

SARSAT 13 (METOP-B)1 38771U 12049A   26257.93752210  .00000069  00000+0  51252-4 0  99962 38771  98.6415 307.6080 0003448  90.2135 269.9437 14.21459141726012

JSON: /api/v1/satellites/38771 · /tle

For live sub-satellite position, see the globe view (requires WebGL).

§ Visibility from observer

Set your observer location to see the next 7 days of passes ≥ 10°. The values pass through the URL so the page stays shareable.

No JS? Fill the form by hand. The geolocation button needs JavaScript.

§ Radio — SatNOGS DB

ModeDescriptionDownlinkUplink
AHRPT AHRPT Downlink 1.701 GHz
BPSK ARGOS-3 465.988 MHz
BPSK PMT-A3 ARGOS-3 A-DCS 465.9875MHz 465.988 MHz
CW Beacon 2.230 GHz
FM Mode X (active over Norway) 7.800 GHz
BPSK SARSAT L-Band 1.545 GHz

6 transmitters · refreshed weekly from db.satnogs.org